Вернуться в каталог

IRIDIUM 100

АктивенСвязьPO
NORAD 42956·PAYLOAD·🇺🇸 United States

Запущен Oct 9, 2017 с Vandenberg Space Force Base

Loading…

Ближайшие Пролёты (ближайшие 24 часа)

TLE

СвежийSource: CelesTrak SupGP

Эпоха: Sep 14, 2026, 21:55 UTC

1 42956C 17061B   26257.91354167 -.00001894  00000+0 -67734-3 0  2579
2 42956  86.4026 347.6926 0002173  96.5511  40.1913 14.34219193    17

Отслеживайте IRIDIUM 100 в реальном времени с AllMySat

Download on the App Store